TIANMU-1 03

Last updated on Sun Oct 06 2024 00:02:18 GMT+0000 (Coordinated Universal Time)

1 55973U 23039A 24279.56395517 .00029558 00000+0 11499-2 0 9995 2 55973 97.4806 69.8089 0005281 146.0042 214.1535 15.25961361 85663
UTC large
Height (km)
Speed (km/s)
/
Latitude / Longitude
Inclination (degrees)
Orbital Period (minutes)
Azimuth
Elevation
Range (km)
Doppler Factor

Next 0 passes for location: London (51.5072 / 0.1276)

Sorry there are no passes over London.